sat.trackr.live / text

‹ back to catalog

STARLINK-2402

NORAD 47819 · 2021-018AJ

PAYLOAD ACTIVE UNKNOWN

§ Identity

Operator
Country
US
Launch date
2021-03-11
Launch site
AFETR
Launch vehicle
Mass (kg)
RCS (m²)

Purposes: comms

External: N2YO · Heavens-Above · Gunter

§ Orbital elements

Epoch: 2026-09-08T08:13:31.216224Z

Period
94.01 min
Inclination
53.1582°
Eccentricity
0.0000888
Mean motion
15.31715834 rev/d
Perigee alt
470.1 km
Apogee alt
471.3 km
Semi-major
6,848.8 km
B*
7.5251e-5
RAAN
113.0287°
Arg perigee
101.1455°
Mean anomaly
258.9647°
Rev number
30,477

§ Raw data

STARLINK-24021 47819U 21018AJ  26251.34272241  .00001972  00000+0  75251-4 0  99942 47819  53.1582 113.0287 0000888 101.1455 258.9647 15.31715834304778

JSON: /api/v1/satellites/47819 · /tle

For live sub-satellite position, see the globe view (requires WebGL).

§ Visibility from observer

Set your observer location to see the next 7 days of passes ≥ 10°. The values pass through the URL so the page stays shareable.

No JS? Fill the form by hand. The geolocation button needs JavaScript.